• In Lithuania
  • List of Countries
  • For 7 days
  • Water Temperature
  • Satellite Maps
  • Weather Map
  • Weather Widgets
  • user-avatar
    Login

    Hourly Weather Zarzyca

    Today, 26 September, Wednesday

    Time Temperature Precipitation Wind Pressure Humidity
    00:00 +5°C° 0 mm 2 mps 755 mmHg 74%
    01:00 +5°C° 0 mm 2 mps 755 mmHg 74%
    02:00 +4°C° 0 mm 2 mps 755 mmHg 74%
    03:00 +4°C° 0 mm 2 mps 755 mmHg 75%
    04:00 +4°C° 0 mm 2 mps 755 mmHg 75%
    05:00 +4°C° 0 mm 2 mps 755 mmHg 74%
    06:00 +5°C° 0 mm 2 mps 754 mmHg 73%
    07:00 +5°C° 0 mm 2 mps 754 mmHg 71%
    08:00 +8°C° 0 mm 3 mps 754 mmHg 63%
    09:00 +10°C° 0 mm 3 mps 754 mmHg 56%
    10:00 +12°C° 0 mm 4 mps 754 mmHg 48%
    11:00 +12°C° 0 mm 4 mps 753 mmHg 46%
    12:00 +13°C° 0 mm 4 mps 753 mmHg 44%
    13:00 +14°C° 0 mm 4 mps 752 mmHg 42%
    14:00 +14°C° 0 mm 4 mps 752 mmHg 43%
    15:00 +14°C° 0 mm 4 mps 751 mmHg 44%
    16:00 +14°C° 0 mm 4 mps 750 mmHg 45%
    17:00 +13°C° 0 mm 4 mps 750 mmHg 48%
    18:00 +12°C° 0 mm 4 mps 750 mmHg 51%
    19:00 +10°C° 0 mm 4 mps 750 mmHg 54%
    20:00 +10°C° 0 mm 4 mps 750 mmHg 54%
    21:00 +10°C° 0 mm 4 mps 750 mmHg 54%
    22:00 +10°C° 0 mm 4 mps 750 mmHg 54%
    23:00 +10°C° 0 mm 4 mps 750 mmHg 55%

    Tomorrow, 27 September, Thursday

    Time Temperature Precipitation Wind Pressure Humidity
    00:00 +10°C° 0 mm 4 mps 750 mmHg 55%
    01:00 +10°C° 0 mm 4 mps 749 mmHg 55%
    02:00 +10°C° 0 mm 3 mps 749 mmHg 55%
    03:00 +10°C° 0 mm 3 mps 749 mmHg 56%
    04:00 +10°C° 0 mm 3 mps 749 mmHg 56%
    05:00 +10°C° 0 mm 3 mps 749 mmHg 57%
    06:00 +11°C° 0 mm 3 mps 749 mmHg 58%
    07:00 +11°C° 0 mm 3 mps 749 mmHg 59%
    08:00 +13°C° 0 mm 3 mps 749 mmHg 57%
    09:00 +16°C° 0 mm 3 mps 749 mmHg 56%
    10:00 +18°C° 0 mm 4 mps 749 mmHg 55%
    11:00 +19°C° 0 mm 3 mps 749 mmHg 55%
    12:00 +20°C° 0 mm 3 mps 748 mmHg 54%
    13:00 +21°C° 0 mm 3 mps 748 mmHg 54%
    14:00 +21°C° 0 mm 3 mps 747 mmHg 55%
    15:00 +21°C° 0 mm 3 mps 747 mmHg 56%
    16:00 +21°C° 0 mm 3 mps 746 mmHg 57%
    17:00 +19°C° 0 mm 3 mps 746 mmHg 60%
    18:00 +17°C° 0 mm 3 mps 745 mmHg 64%
    19:00 +16°C° 0 mm 3 mps 745 mmHg 68%
    20:00 +14°C° 0 mm 3 mps 745 mmHg 68%
    21:00 +14°C° 0 mm 3 mps 745 mmHg 67%
    22:00 +14°C° 0 mm 3 mps 744 mmHg 67%
    23:00 +14°C° 0 mm 3 mps 744 mmHg 66%

    Day after tomorrow, 28 September, Friday

    Time Temperature Precipitation Wind Pressure Humidity
    00:00 +13°C° 0 mm 3 mps 743 mmHg 65%
    01:00 +13°C° 0 mm 4 mps 743 mmHg 65%
    02:00 +13°C° 0 mm 3 mps 742 mmHg 64%
    03:00 +12°C° 0 mm 3 mps 742 mmHg 64%
    04:00 +11°C° 0 mm 3 mps 742 mmHg 64%
    05:00 +11°C° 0 mm 3 mps 742 mmHg 65%
    06:00 +11°C° 0 mm 3 mps 742 mmHg 66%
    07:00 +11°C° 0 mm 3 mps 742 mmHg 67%
    08:00 +13°C° 0 mm 3 mps 742 mmHg 63%
    09:00 +14°C° 0 mm 3 mps 742 mmHg 60%
    10:00 +17°C° 0 mm 3 mps 742 mmHg 56%
    11:00 +17°C° 0 mm 4 mps 742 mmHg 57%
    12:00 +18°C° 0 mm 4 mps 742 mmHg 58%
    13:00 +18°C° 0 mm 4 mps 742 mmHg 60%
    14:00 +17°C° 0 mm 4 mps 742 mmHg 63%
    15:00 +15°C° 0 mm 4 mps 741 mmHg 67%
    16:00 +14°C° 0 mm 4 mps 741 mmHg 71%
    17:00 +13°C° 0 mm 3 mps 742 mmHg 73%
    18:00 +12°C° 0 mm 3 mps 742 mmHg 75%
    19:00 +12°C° 0 mm 2 mps 742 mmHg 77%
    20:00 +12°C° 0 mm 2 mps 742 mmHg 75%
    21:00 +10°C° 0 mm 2 mps 743 mmHg 74%
    22:00 +10°C° 0 mm 2 mps 743 mmHg 73%
    23:00 +9°C° 0 mm 2 mps 743 mmHg 73%

    29 September, Saturday

    Time Temperature Precipitation Wind Pressure Humidity
    00:00 +9°C° 0 mm 2 mps 743 mmHg 73%
    01:00 +9°C° 0 mm 2 mps 743 mmHg 72%
    02:00 +9°C° 0 mm 2 mps 743 mmHg 72%
    03:00 +9°C° 0 mm 2 mps 743 mmHg 72%
    04:00 +8°C° 0 mm 3 mps 744 mmHg 72%
    05:00 +8°C° 0 mm 3 mps 744 mmHg 73%
    06:00 +7°C° 0 mm 3 mps 744 mmHg 73%
    07:00 +7°C° 0 mm 3 mps 745 mmHg 74%
    08:00 +8°C° 0 mm 3 mps 745 mmHg 68%
    09:00 +8°C° 0 mm 4 mps 745 mmHg 62%
    10:00 +11°C° 0 mm 4 mps 746 mmHg 57%
    11:00 +11°C° 0 mm 4 mps 746 mmHg 54%
    12:00 +12°C° 0 mm 4 mps 746 mmHg 51%
    13:00 +12°C° 0 mm 4 mps 746 mmHg 48%
    14:00 +12°C° 0 mm 4 mps 746 mmHg 48%
    15:00 +12°C° 0 mm 3 mps 746 mmHg 49%
    16:00 +12°C° 0 mm 3 mps 746 mmHg 50%
    17:00 +10°C° 0 mm 3 mps 746 mmHg 55%
    18:00 +9°C° 0 mm 2 mps 747 mmHg 60%
    19:00 +9°C° 0 mm 1 mps 747 mmHg 65%
    20:00 +8°C° 0 mm 1 mps 747 mmHg 66%
    21:00 +8°C° 0 mm 1 mps 747 mmHg 68%
    22:00 +7°C° 0 mm 1 mps 747 mmHg 69%
    23:00 +7°C° 0 mm 1 mps 747 mmHg 70%

    30 September, Sunday

    Time Temperature Precipitation Wind Pressure Humidity
    00:00 +7°C° 0 mm 1 mps 747 mmHg 71%
    01:00 +6°C° 0 mm 1 mps 747 mmHg 73%
    02:00 +5°C° 0 mm 0 mps 747 mmHg 74%
    03:00 +5°C° 0 mm 0 mps 747 mmHg 75%
    04:00 +5°C° 0 mm 0 mps 747 mmHg 76%
    05:00 +5°C° 0 mm 0 mps 747 mmHg 75%
    06:00 +6°C° 0 mm 0 mps 747 mmHg 73%
    07:00 +6°C° 0 mm 0 mps 747 mmHg 72%
    08:00 +9°C° 0 mm 1 mps 747 mmHg 63%
    09:00 +11°C° 0 mm 1 mps 747 mmHg 55%
    10:00 +13°C° 0 mm 2 mps 747 mmHg 47%
    11:00 +14°C° 0 mm 2 mps 746 mmHg 43%
    12:00 +14°C° 0 mm 2 mps 746 mmHg 40%
    13:00 +15°C° 0 mm 2 mps 745 mmHg 37%
    14:00 +15°C° 0 mm 2 mps 744 mmHg 38%
    15:00 +15°C° 0 mm 2 mps 744 mmHg 40%
    16:00 +15°C° 0 mm 2 mps 743 mmHg 41%
    17:00 +13°C° 0 mm 2 mps 743 mmHg 45%
    18:00 +10°C° 0 mm 2 mps 743 mmHg 49%
    19:00 +9°C° 0 mm 1 mps 743 mmHg 53%
    20:00 +9°C° 0 mm 1 mps 743 mmHg 55%
    21:00 +8°C° 0 mm 1 mps 742 mmHg 56%
    22:00 +8°C° 0 mm 1 mps 742 mmHg 58%
    23:00 +8°C° 0 mm 1 mps 741 mmHg 59%

    1 October, Monday

    Time Temperature Precipitation Wind Pressure Humidity
    00:00 +7°C° 0 mm 1 mps 741 mmHg 61%
    01:00 +7°C° 0 mm 1 mps 740 mmHg 63%
    02:00 +7°C° 0 mm 1 mps 740 mmHg 65%
    03:00 +7°C° 0 mm 1 mps 740 mmHg 66%
    04:00 +7°C° 0 mm 1 mps 739 mmHg 68%
    05:00 +7°C° 0 mm 1 mps 739 mmHg 68%
    06:00 +8°C° 0 mm 1 mps 738 mmHg 68%
    07:00 +8°C° 0 mm 1 mps 738 mmHg 68%
    08:00 +10°C° 0 mm 2 mps 738 mmHg 62%
    09:00 +13°C° 0 mm 2 mps 737 mmHg 57%
    10:00 +14°C° 0 mm 3 mps 737 mmHg 52%
    11:00 +16°C° 0 mm 3 mps 736 mmHg 50%
    12:00 +17°C° 0 mm 4 mps 736 mmHg 48%
    13:00 +18°C° 0 mm 4 mps 735 mmHg 47%
    14:00 +18°C° 0 mm 4 mps 735 mmHg 48%
    15:00 +18°C° 0 mm 3 mps 734 mmHg 50%
    16:00 +18°C° 0 mm 2 mps 734 mmHg 51%
    17:00 +16°C° 0 mm 2 mps 734 mmHg 57%
    18:00 +14°C° 0 mm 2 mps 734 mmHg 63%
    19:00 +12°C° 0 mm 2 mps 733 mmHg 68%
    20:00 +12°C° 0 mm 2 mps 733 mmHg 70%
    21:00 +10°C° 0 mm 2 mps 733 mmHg 72%
    22:00 +10°C° 0 mm 2 mps 733 mmHg 75%
    23:00 +9°C° 0 mm 2 mps 733 mmHg 74%
    Show more